Other Public Products
Issued by NWS Grand Forks, ND

Home | Current Version | Previous Version | Text Only | Print | Product List | Glossary On
Versions: 1 2 3 4 5 6 7 8 9 10 11 12 13 14 15 16 17 18 19 20 21 22 23 24 25 26 27 28 29 30 31 32 33 34 35 36 37 38 39 40 41 42 43 44 45 46 47 48 49 50
000
FPUS83 KFGF 251231
OPUFGF
PRAIRIE TO PINES WEATHER ROUNDUP
NATIONAL WEATHER SERVICE EASTERN NORTH DAKOTA/GRAND FORKS ND
700 AM CDT SAT MAR 25 2017

 **SATELLITE DATA USED TO AUGMENT SKY COVER AT AUTOMATED STATIONS**
 *****  WEATHER ACROSS EASTERN NORTH DAKOTA  *****

CITY           SKY/WX    TMP DP  RH WIND       PRES   REMARKS
GRAND FORKS    FAIR      30  29  96 SE9       30.16S WCI  22
6HR MIN TEMP:  25; 6HR MAX TEMP:  30;

GRAND FORKS AF FAIR      25  25  99 S5        30.15S WCI  19
GRAND CITY NWS NOT AVBL
BUXTON         NOT AVBL
DEVILS LAKE    FAIR      27  25  92 SE13      30.08F WCI  16
6HR MIN TEMP:  26; 6HR MAX TEMP:  30;

FARGO          FAIR      30  27  88 SE5       30.18R
6HR MIN TEMP:  26; 6HR MAX TEMP:  30;

WAHPETON ARPT  CLOUDY    32  30  93 SE10      30.18S WCI  24
$$

 *****  WEATHER ACROSS CENTRAL AND WESTERN NORTH DAKOTA  *****

CITY           SKY/WX    TMP DP  RH WIND       PRES   REMARKS
JAMESTOWN      CLOUDY    28  27  96 S9        30.10S WCI  19
6HR MIN TEMP:  24; 6HR MAX TEMP:  30;

BISMARCK       CLOUDY    31  30  96 SE12      30.04S FOG     WCI  22
6HR MIN TEMP:  29; 6HR MAX TEMP:  32;

MINOT          FAIR      32  30  92 SE12      29.96F WCI  23
6HR MIN TEMP:  31; 6HR MAX TEMP:  33;

MINOT AFB      FAIR      32  28  86 SE13      29.94F WCI  22
GARRISON         N/A     30  29  96 SE15      29.96F WCI  19
6HR MIN TEMP:  29; 6HR MAX TEMP:  30;

WILLISTON      FAIR      43  33  68 S12       29.84S
6HR MIN TEMP:  42; 6HR MAX TEMP:  43;

DICKINSON      FAIR      33  29  85 S20       29.87S WCI  21
6HR MIN TEMP:  33; 6HR MAX TEMP:  38; 6HR PCP: TRACE;

HETTINGER      FAIR      33  29  85 SE10      29.93F WCI  25
6HR MIN TEMP:  33; 6HR MAX TEMP:  38;

$$

 *****  OTHER OBSERVATIONS NORTHEAST NORTH DAKOTA  *****

CITY           SKY/WX    TMP DP  RH WIND       PRES   REMARKS
WALHALLA       NOT AVBL
LANGDON        FAIR      27  27 100 SE13      30.08S WCI  16
CAVALIER         N/A     28  27  93 SE8G14    30.12F WCI  20
GRAFTON        FAIR      28  28 100 SE8       30.17F WCI  20
CANDO          NOT AVBL
FORT TOTTEN      N/A     27  27 100 SE9       29.95S WCI  18
ROLLA          CLOUDY    27  27 100 S16       30.03F WCI  14
RUGBY            N/A     28  28 100 SE15      30.02F WCI  17
 ***** THE ABOVE OBSERVATIONS ARE NON NWS ARE NOT QUALITY
        CONTROLLED AND MAY MIS-REPORT RAIN FOR SNOW...
$$

 *****  OTHER OBSERVATIONS SOUTHEAST NORTH DAKOTA *****

CITY           SKY/WX    TMP DP  RH WIND       PRES   REMARKS
COOPERSTOWN    FAIR      27  27 100 SE7       30.12F WCI  19
VALLEY CITY    PTSUNNY   27  27 100 SE7       30.14S FOG     WCI  19
OAKES          NOT AVBL
GWINNER        CLOUDY    27  27 100 MISG      30.15F FOG
SHEYENNE NWR     N/A     20  19  96 CALM      29.95S
BUFFALO        NOT AVBL
WYNDMERE         N/A     25  25 100 E1          N/A
 ***** THE ABOVE OBSERVATIONS ARE NON NWS ARE NOT QUALITY
       CONTROLLED AND MAY MIS-REPORT RAIN FOR SNOW...
$$

  *****  WEATHER ACROSS NORTHERN MINNESOTA  *****

CITY           SKY/WX    TMP DP  RH WIND       PRES   REMARKS
FLAG ISLAND    FAIR      28  25  86 SE6       30.22R WCI  22
WARROAD        FAIR      27  23  86 SE3       30.22S
ROSEAU         FAIR      30  25  80 SE7       30.20S WCI  23
HALLOCK        FAIR      32  28  86 SE14      30.15F WCI  22
THF RVR FALLS  FAIR     N/A N/A N/A SE10      30.19F
HALSTAD          N/A     29  27  90 SE7         N/A  WCI  22
FOSSTON        CLOUDY    27  27 100 CALM      30.19F
BAUDETTE       FAIR      27  24  89 E7        30.22S WCI  19
6HR MIN TEMP:  26; 6HR MAX TEMP:  29;

WASKISH        CLOUDY    32  28  86 E3        30.23R
CROOKSTON      FAIR      30  28  93 SE9       30.19S WCI  22
$$
  *****  WEATHER ACROSS CENTRAL AND WEST MINNESOTA  *****

CITY           SKY/WX    TMP DP  RH WIND       PRES   REMARKS
BEMIDJI        CLOUDY    33  30  90 SE9       30.21R
PARK RAPIDS    CLOUDY    35  26  69 SE10      30.19R
6HR MIN TEMP:  35; 6HR MAX TEMP:  37;

WADENA         CLOUDY    32  27  80 E9G18     30.19R WCI  24
DETROIT LAKES  CLOUDY    34  30  86 SE15      30.18S WCI  24
MOORHEAD       FAIR      28  27  93 CALM      30.19R
FERGUS FALLS   CLOUDY    34  28  80 SE10      30.22R
ELBOW LAKE     CLOUDY    32  30  94 SE12      30.19R WCI  23
6HR MIN TEMP:  31; 6HR MAX TEMP:  34;

MORRIS MN      CLOUDY    34  30  86 E15       30.17R WCI  24
STAPLES        CLOUDY    32  27  80 E9        30.20S WCI  24
WHEATON        CLOUDY    34  30  86 E13       30.20R WCI  25
$$
  *****  WEATHER ELSEWHERE ACROSS MINNESOTA  *****

CITY           SKY/WX    TMP DP  RH WIND       PRES   REMARKS
DULUTH         CLOUDY    32  29  88 E17       30.24S WCI  21
6HR MIN TEMP:  32; 6HR MAX TEMP:  33;

INTRNTL FALLS  CLOUDY    33  29  85 SE6       30.25R
6HR MIN TEMP:  33; 6HR MAX TEMP:  34;

ELY            CLOUDY    30  27  86 SE7       30.27S WCI  23
CLOQUET        CLOUDY    32  28  86 E8        30.24S WCI  25
BRAINERD       CLOUDY    32  29  88 E5        30.22R
6HR MIN TEMP:  31; 6HR MAX TEMP:  36;

HIBBING        CLOUDY    30  27  88 E8        30.25R WCI  22
6HR MIN TEMP:  30; 6HR MAX TEMP:  32;

ALEXANDRIA     CLOUDY    32  29  88 E17       30.17S WCI  21
6HR MIN TEMP:  32; 6HR MAX TEMP:  35;

SAINT CLOUD    CLOUDY    34  30  85 E7        30.19S
6HR MIN TEMP:  34; 6HR MAX TEMP:  36;

MINNEAPOLIS    CLOUDY    37  30  75 NE10      30.17R
6HR MIN TEMP:  37; 6HR MAX TEMP:  39;

$$

  *****  WEATHER ACROSS SOUTH DAKOTA  *****

CITY           SKY/WX    TMP DP  RH WIND       PRES   REMARKS
SIOUX FALLS    CLOUDY    35  34  96 E13       30.11S FOG
6HR MIN TEMP:  35; 6HR MAX TEMP:  37;

BROOKINGS      CLOUDY    32  30  92 E12       30.12R WCI  23
WATERTOWN      CLOUDY    31  29  92 E12       30.12R WCI  22
6HR MIN TEMP:  30; 6HR MAX TEMP:  33;

HURON          CLOUDY    34  31  88 E6        30.13R
6HR MIN TEMP:  33; 6HR MAX TEMP:  38;

SISSETON         N/A     30  30 100 CALM      30.15S
ABERDEEN       CLOUDY    31  27  85 E7        30.13F WCI  24
6HR MIN TEMP:  25; 6HR MAX TEMP:  31;

MITCHELL       CLOUDY    35  32  88 E9        30.13S
PIERRE         FOG       32  31  96 SE15      30.07F VSB 3/4 WCI  22
6HR MIN TEMP:  26; 6HR MAX TEMP:  33;

MOBRIDGE       FOG       31  28  89 SE10      30.03F VSB 3/4 WCI  22
RAPID CITY     FAIR      35  27  72 S15       29.93F
6HR MIN TEMP:  34; 6HR MAX TEMP:  39;

$$

  *****  SOME WEATHER IN NEARBY STATES *****

CITY           SKY/WX    TMP DP  RH WIND       PRES   REMARKS
GLASGOW MT     FAIR      48  31  51 W10       29.82R
6HR MIN TEMP:  43; 6HR MAX TEMP:  52;

GREAT FALLS MT FAIR      40  25  55 SW14      29.90S
6HR MIN TEMP:  40; 6HR MAX TEMP:  46;

CHEYENNE WY    FAIR      32  26  78 S10       30.03R WCI  24
6HR MIN TEMP:  28; 6HR MAX TEMP:  33;

SCOTTSBLUFF NE FAIR      30  25  81 E10       30.02F WCI  21
6HR MIN TEMP:  29; 6HR MAX TEMP:  35;

OMAHA NE       HVY RAIN  41  37  86 N14       29.97R FOG
6HR MIN TEMP:  41; 6HR MAX TEMP:  42; 6HR PCP:  0.20;

DES MOINES IA  LGT RAIN  42  40  92 N12       29.94R FOG
6HR MIN TEMP:  42; 6HR MAX TEMP:  44; 6HR PCP:  0.17;

DAVENPORT IA   CLOUDY    41  39  93 NE20G26   29.93S
6HR MIN TEMP:  41; 6HR MAX TEMP:  47; 6HR PCP:  0.05;

CHICAGO IL     LGT RAIN  41  38  89 N14       30.05R FOG
6HR MIN TEMP:  41; 6HR MAX TEMP:  42; 6HR PCP:  0.16;

EAU CLAIRE WI  CLOUDY    36  31  82 E15       30.17F
6HR MIN TEMP:  36; 6HR MAX TEMP:  38;

LA CROSSE WI   CLOUDY    38  33  82 E10G18    30.12S HAZE
6HR MIN TEMP:  38; 6HR MAX TEMP:  41;

$$

  *****  SOME NATIONAL WEATHER *****

CITY           SKY/WX    TMP DP  RH WIND       PRES   REMARKS
LA GUARDIA NY  PTSUNNY   53  38  56 SW3       30.13R
6HR MIN TEMP:  53; 6HR MAX TEMP:  55;

RALEIGH NC     MOCLDY    54  49  83 SW5       30.34R



USA.gov is the U.S. government's official web portal to all federal, state and local government web resources and services.